Simultaneous Nadir Overpasses (SNOs) Predictions

Prediction of SNOs between LANDSAT-8 and NOAA-19 Satellite Orbit:

Table of predicted SNOs for the next 14.0 days since TLE Epoch: 10/17/2015
Index Date (LANDSAT-8) Time (LANDSAT-8) Lat,Lon (LANDSAT-8) SZA (LANDSAT-8 ) Date (NOAA-19) Time (NOAA-19) Lat,Lon (NOAA-19) SZA (NOAA-19 ) Distance(km) Time Diff (sec)
1 10/17/2015 12:37:13 -73.71, 173.24 97.04 10/17/2015 12:36:27 -73.70, 173.34 97.06 3.47 46
2 10/17/2015 13:26:40 73.64, -19.29 82.89 10/17/2015 13:27:33 73.64, -19.28 82.90 0.27 53
3 10/19/2015 18:10:58 73.68, -90.26 83.74 10/19/2015 18:10:49 73.68, -90.15 83.74 3.57 9
4 10/19/2015 19:00:28 -73.56, 77.11 96.38 10/19/2015 19:01:41 -73.53, 77.47 96.39 11.85 73
5 10/21/2015 22:55:15 73.77,-161.14 84.62 10/21/2015 22:54:06 73.77,-161.16 84.62 0.59 69
6 10/21/2015 23:44:44 -73.71, 6.35 95.44 10/21/2015 23:44:59 -73.68, 6.34 95.46 2.97 15
7 10/24/2015 04:29:02 -73.74, -64.66 94.63 10/24/2015 04:28:15 -73.73, -64.56 94.64 2.96 47
8 10/24/2015 05:18:29 73.65, 102.80 85.30 10/24/2015 05:19:21 73.66, 102.84 85.31 1.50 52
9 10/26/2015 10:02:46 73.73, 31.89 86.14 10/26/2015 10:02:37 73.72, 31.91 86.13 1.08 9
10 10/26/2015 10:52:16 -73.61,-160.72 93.98 10/26/2015 10:53:29 -73.57,-160.46 94.00 9.40 73
11 10/28/2015 14:47:03 73.79, -39.04 86.95 10/28/2015 14:45:53 73.79, -39.03 86.94 0.70 70
12 10/28/2015 15:36:32 -73.73, 128.46 93.11 10/28/2015 15:36:47 -73.73, 128.38 93.10 2.50 15
13 10/30/2015 20:20:49 -73.79, 57.52 92.31 10/30/2015 20:20:03 -73.80, 57.45 92.32 2.32 46
14 10/30/2015 21:10:16 73.70,-135.04 87.60 10/30/2015 21:11:08 73.70,-135.08 87.61 1.33 52




NCC Satellite Simultaneous Nadir Overpasses (SNOs) Prediction Service
